This is the latest recevied weather packets stored in our database for station/object KN6KDD. If no packets are shown the sender has not sent any weather packets the latest 1 day(s).
| Time | Temp. | Humidity | Pressure | Rain* | Wind** | Luminosity | Snow |
|---|---|---|---|---|---|---|---|
| 1777992731 | 10.56° C | 98% | 1353.5 hPa | 0 mm | 0 m/s | 89 W/m² | - |
| 1777992428 | 10° C | 98% | 1353.5 hPa | 0 mm | 0.89 m/s, 318° | 88 W/m² | - |
| 1777992126 | 10° C | 98% | 1353.5 hPa | 0 mm | 1.34 m/s, 277° | 74 W/m² | - |
| 1777991823 | 10° C | 99% | 1353.4 hPa | 0 mm | 0.45 m/s, 288° | 67 W/m² | - |
| 1777991520 | 10° C | 99% | 1353.5 hPa | 0 mm | 1.79 m/s, 297° | 61 W/m² | - |
| 1777991217 | 10° C | 99% | 1353.4 hPa | 0 mm | 1.79 m/s, 256° | 61 W/m² | - |
| 1777990914 | 10° C | 99% | 1353.3 hPa | 0 mm | 0.89 m/s, 243° | 50 W/m² | - |
| 1777990612 | 10° C | 99% | 1353.1 hPa | 0 mm | 0.45 m/s, 273° | 47 W/m² | - |
| 1777990309 | 10° C | 99% | 1353.3 hPa | 0 mm | 0.89 m/s, 254° | 43 W/m² | - |
| 1777990005 | 10° C | 99% | 1353.1 hPa | 0 mm | 0.45 m/s, 267° | 40 W/m² | - |
| 1777989702 | 10° C | 99% | 1353.3 hPa | 0 mm | 0.89 m/s, 283° | 39 W/m² | - |
| 1777989398 | 10° C | 99% | 1353 hPa | 0 mm | 0.89 m/s, 288° | 32 W/m² | - |
| 1777989095 | 10° C | 99% | 1353 hPa | 0 mm | 0.89 m/s, 250° | 27 W/m² | - |
| 1777988790 | 10° C | 99% | 1353 hPa | 0 mm | 0.45 m/s, 264° | 22 W/m² | - |
| 1777988488 | 10° C | 99% | 1352.9 hPa | 0 mm | 1.34 m/s, 229° | 22 W/m² | - |
| 1777988185 | 10° C | 99% | 1353 hPa | 0 mm | 0.89 m/s, 290° | 22 W/m² | - |
| 1777987881 | 10° C | 99% | 1353.1 hPa | 0 mm | 0 m/s | 12 W/m² | - |
| 1777987577 | 10° C | 99% | 1352.9 hPa | 0 mm | 1.34 m/s, 285° | 7 W/m² | - |
| 1777987275 | 10° C | 99% | 1353.1 hPa | 0 mm | 0 m/s | 5 W/m² | - |
| 1777986972 | 10° C | 99% | 1352.9 hPa | 0 mm | 0.89 m/s, 258° | 3 W/m² | - |
| 1777986670 | 10° C | 99% | 1352.9 hPa | 0 mm | 0 m/s | 2 W/m² | - |
| 1777986368 | 10° C | 99% | 1352.9 hPa | 0 mm | 0.45 m/s, 167° | 1 W/m² | - |
| 1777986066 | 10° C | 99% | 1352.7 hPa | 0 mm | 0 m/s | 0 W/m² | - |
| 1777985762 | 10° C | 99% | 1352.7 hPa | 0 mm | 0.89 m/s, 274° | 0 W/m² | - |
| 1777985459 | 10° C | 99% | 1352.6 hPa | 0 mm | 0 m/s | 0 W/m² | - |
* Rain latest hour (hover to see other rain measurements)
** Current wind speed in m/s (hover to see current wind gust speed)